Alexandria, MN

4:33 AM CDT on July 26, 2017 (GMT -0500)
Chandler

Weather History for KAXN - March, 2014

Change the Weather History Date:

Sunday, March 2, 2014

  Actual Average Record
Temperature  
Mean Temperature -10 °F -  
Max Temperature -2 °F 28 °F 47 °F (1961)
Min Temperature -18 °F 11 °F -20 °F (1972)
Degree Days  
Heating Degree Days 75    
Moisture  
Dew Point -19 °F    
Average Humidity 68    
Maximum Humidity 82    
Minimum Humidity 59    
Precipitation  
Precipitation 0.00 in - - ()
Sea Level Pressure  
Sea Level Pressure 30.63 in    
Wind  
Wind Speed 11 mph (WNW)    
Max Wind Speed 18 mph    
Max Gust Speed -    
Visibility 10 miles    
Events      
Averages and records for this station are not official NWS values.
T = Trace of Precipitation, MM = Missing Value Source: NWS Daily Summary

Daily Weather History Graph

Daily Weather History Graph

Search for Another Location

Airport or City:

Trip Planner

Search our weather history database for the weather conditions in past years. The results will help you decide how hot, cold, wet, or windy it might be!

Date:

Astronomy

Mar. 02, 2014 Rise Set
Actual Time 6:58 AM CST 6:09 PM CST
Civil Twilight 6:28 AM CST 6:39 PM CST
Nautical Twilight 5:54 AM CST 7:14 PM CST
Astronomical Twilight 5:19 AM CST 7:48 PM CST
Moon 7:23 AM CST (3/2) 8:15 PM CST (3/2)
Length of Visible Light 12h 11m
Length of Day
11h 11m
Waxing Crescent, 3% of the Moon is Illuminated
Mar 2
Waxing Crescent
Mar 8
First Quarter
Mar 16
Full
Mar 23
Last Quarter
Mar 30
New

Hourly Weather History & Observations

Time (CST) Temp. Windchill Dew Point Humidity Pressure Visibility Wind Dir Wind Speed Gust Speed Precip Events Conditions
12:53 AM -15.0 °F -33.7 °F -23.1 °F 67% 30.64 in 10.0 mi WNW 9.2 mph - N/A   Clear
1:53 AM -14.1 °F -38.2 °F -23.1 °F 64% 30.65 in 10.0 mi WNW 16.1 mph - N/A   Clear
2:53 AM -14.1 °F -36.6 °F -24.0 °F 61% 30.65 in 10.0 mi WNW 13.8 mph - N/A   Mostly Cloudy
3:53 AM -15.0 °F -33.7 °F -24.0 °F 64% 30.64 in 10.0 mi WNW 9.2 mph - N/A   Partly Cloudy
4:53 AM -16.1 °F -35.0 °F -24.0 °F 67% 30.63 in 10.0 mi WNW 9.2 mph - N/A   Clear
5:53 AM -16.1 °F -33.7 °F -24.0 °F 67% 30.63 in 10.0 mi West 8.1 mph - N/A   Clear
6:53 AM -18.0 °F -36.1 °F -24.0 °F 74% 30.64 in 10.0 mi West 8.1 mph - N/A   Clear
7:53 AM -16.1 °F -38.2 °F -23.1 °F 71% 30.65 in 10.0 mi West 12.7 mph - N/A   Clear
8:53 AM -13.0 °F -37.5 °F -22.0 °F 64% 30.64 in 10.0 mi WNW 17.3 mph - N/A   Clear
9:53 AM -11.9 °F -36.8 °F -22.0 °F 61% 30.64 in 10.0 mi West 18.4 mph - N/A   Clear
10:53 AM -9.9 °F -34.2 °F -20.9 °F 59% 30.65 in 10.0 mi WNW 18.4 mph - N/A   Clear
11:53 AM -9.0 °F -30.2 °F -18.0 °F 65% 30.64 in 10.0 mi West 13.8 mph - N/A   Clear
12:53 PM -7.1 °F -26.8 °F -17.0 °F 62% 30.64 in 10.0 mi WNW 12.7 mph - N/A   Clear
1:53 PM -5.1 °F -24.3 °F -15.0 °F 62% 30.63 in 10.0 mi WNW 12.7 mph - N/A   Clear
2:53 PM -4.0 °F -24.5 °F -14.1 °F 62% 30.61 in 10.0 mi NW 15.0 mph - N/A   Clear
3:53 PM -2.9 °F -21.6 °F -13.0 °F 62% 30.61 in 10.0 mi WNW 12.7 mph - N/A   Clear
4:53 PM -2.9 °F -20.8 °F -13.0 °F 62% 30.61 in 10.0 mi NW 11.5 mph - N/A   Clear
5:53 PM -4.0 °F -20.2 °F -13.0 °F 65% 30.60 in 10.0 mi WNW 9.2 mph - N/A   Clear
6:53 PM -8.0 °F -21.0 °F -15.0 °F 71% 30.62 in 10.0 mi NW 5.8 mph - N/A   Clear
7:53 PM -9.0 °F -22.3 °F -14.1 °F 79% 30.62 in 10.0 mi NW 5.8 mph - N/A   Clear
8:53 PM -9.0 °F -20.4 °F -14.1 °F 79% 30.61 in 10.0 mi West 4.6 mph - N/A   Clear
9:53 PM -9.0 °F -20.4 °F -14.1 °F 79% 30.61 in 10.0 mi NNW 4.6 mph - N/A   Clear
10:53 PM -9.9 °F -23.4 °F -14.1 °F 82% 30.60 in 10.0 mi NNW 5.8 mph - N/A   Partly Cloudy
11:53 PM -11.0 °F - -17.0 °F 75% 30.61 in 10.0 mi Calm Calm - N/A   Clear